Regional Weather Roundup
Issued by NWS

Home | Current Version | Previous Version | Graphics & Text | Print | Product List | Glossary On
Versions: 1 2 3 4 5 6 7 8 9 10 11 12 13 14 15 16 17 18 19 20 21 22 23 24 25 26 27 28 29 30 31 32 33 34 35 36 37 38 39 40 41 42 43 44 45 46 47 48 49 50
000
ASUS43 KDTX 161601
RWRMI
MICHIGAN HOURLY REGIONAL WEATHER ROUNDUP
NATIONAL WEATHER SERVICE DETROIT/PONTIAC MI
1100 AM EST SAT DEC 16 2017

NOTE: "FAIR" INDICATES FEW OR NO CLOUDS BELOW 12,000 FEET WITH NO
SIGNIFICANT WEATHER AND/OR OBSTRUCTION TO VISIBILITY.

MIZ047>049-052>055-059>063-066>070-074>076-081>083-161700-
SOUTHEAST LOWER MICHIGAN

CITY           SKY/WX    TMP DP  RH WIND       PRES   REMARKS
ANN ARBOR      CLOUDY    33  26  75 CALM      29.96R
BAD AXE        LGT SNOW  23  19  87 CALM      30.00R
CARO           LGT SNOW  23  19  87 CALM      30.00R
DETROIT CITY   CLOUDY    26  23  88 NE7       30.00R FOG     WCI  18
DETROIT        FLURRIES  36  26  67 CALM      29.99R
FLINT          FLURRIES  23  19  85 NE8       29.99R WCI  14
GROSSE ILE     LGT SNOW  34  27  75 W6        29.97R WCI  29
HILLSDALE      CLOUDY    34  27  75 SW6       29.93R WCI  29
HOWELL         CLOUDY    26  24  93 NE6       29.96R WCI  19

CITY           SKY/WX    TMP DP  RH WIND       PRES   REMARKS
JACKSON        LGT SNOW  34  26  72 SW8       29.94R WCI  27
LAMBERTVILLE   CLOUDY    36  27  69 SW8       29.98R WCI  29
LANSING        CLOUDY    25  22  88 E10       29.97R WCI  15
LAPEER         FLURRIES  24  20  85 CALM      30.00R
MASON          CLOUDY    27  22  82 NE8       29.95S WCI  19
MT. CLEMENS    LGT SNOW  24  22  94 N7        29.98R FOG     WCI  16
PONTIAC        FLURRIES  24  22  91 NE6       29.96R WCI  17
PORT HOPE        N/A     26  20  77 NE14      29.99R WCI  14
PORT HURON     FLURRIES  23  18  80 N3        30.00S
TRI CITIES     SNOW      22  20  92 NE7       30.01R VSB 1/2 WCI  13
MIDLAND        LGT SNOW  23  19  83 E3        30.00R
TROY           CLOUDY    26  23  88 NE7       30.01R WCI  19
SAGINAW HB     LGT SNOW  23  21  93 E3        30.01R
$$
MIZ043>046-050>051-056>058-064>065-071>073-077>080-161700-
SOUTHWEST LOWER MICHIGAN

CITY           SKY/WX    TMP DP  RH WIND       PRES   REMARKS
BATTLE CREEK   CLOUDY    34  27  75 S8        29.93R WCI  27
BENTON HARBOR  CLOUDY    38  27  64 SW10      29.92R WCI  31
BIG RAPIDS     CLOUDY    21  18  88 E7        29.95R WCI  13
COLDWATER      CLOUDY    36  27  69 SW8       29.94R WCI  29
HOLLAND        CLOUDY    29  25  85 E8        29.93R WCI  21
GRAND RAPIDS   CLOUDY    25  22  88 E16       29.95R WCI  12
IONIA          CLOUDY    25  21  86 E10       29.95R WCI  14
KALAMAZOO      CLOUDY    35  26  69 SW7       29.93R WCI  29
LUDINGTON      CLOUDY    23  17  80 E9        29.95S WCI  13
MARSHALL       CLOUDY    34  26  71 SW3       29.93R
MOUNT PLEASANT PTSUNNY   23  19  82 E3        29.99R
MUSKEGON       CLOUDY    27  20  75 E12       29.95R WCI  17
SOUTH HAVEN    CLOUDY    39  30  69 SW6       29.91S WCI  35
$$
MIZ016>042-161700-
NORTHERN LOWER MICHIGAN

CITY           SKY/WX    TMP DP  RH WIND       PRES   REMARKS
ALPENA         CLOUDY    16  10  77 N10       30.06R WCI   4
BEAVER ISLAND  LGT SNOW  14  10  84 E10G17    30.04S WCI   2
BELLAIRE       MOSUNNY   17  12  82 NE6       30.03R WCI   8
CADILLAC       CLOUDY    19  15  86 E8        29.94R WCI   9
CHARLEVOIX     MOSUNNY   15  10  78 E12       30.06R WCI   2
FRANKFORT      CLOUDY    25  16  68 E5        29.98R WCI  19
GAYLORD        LGT SNOW  12   7  80 NE7       29.98R VSB 1   WCI   1
GRAYLING       CLOUDY    16  10  77 NE8       29.99R WCI   5
HARBOR SPRINGS FLURRIES  13   7  78 NE9G16    30.04R WCI   0
HOUGHTON LAKE  CLOUDY    18  13  80 E8        29.97R WCI   8
MANISTEE       FLURRIES  22  18  85 E6        29.97R WCI  14
OSCODA         CLOUDY    19  12  73 N9        30.03R WCI   9
PELLSTON       LGT SNOW  12   7  80 NE12      30.07R WCI  -2
ROGERS CITY    LGT SNOW  13   9  84 NE6       30.08R WCI   4
TRAVERSE CITY  CLOUDY    22  14  71 E6        29.99R WCI  14
$$
MIZ007>008-015-161700-
EASTERN UPPER MICHIGAN

CITY           SKY/WX    TMP DP  RH WIND       PRES   REMARKS
KINROSS        CLOUDY     0  -7  72 NE10      30.09R WCI -16
MACKINAC ISLAN CLOUDY     8   1  72 NE9       30.08R WCI  -5
NEWBERRY       FLURRIES   8   7  92 E9        30.04R WCI  -5
S. S. MARIE    CLOUDY     1 -11  57 E7        30.09R WCI -12
MUNISING         N/A     15  12  88 SE6       30.02R WCI   6
$$
MIZ004>006-011>014-085-161700-
CENTRAL UPPER MICHIGAN

CITY           SKY/WX    TMP DP  RH WIND       PRES   REMARKS
MANISTIQUE     MOSUNNY   12   5  71 NE8       30.03S WCI   1
ESCANABA       SUNNY     16  10  77 NE7       30.02R WCI   6
MENOMINEE      CLOUDY    19  13  77 NE6       30.00R WCI  11
SAWYER-GWINN   SUNNY     10   9  92 SE6       29.97R WCI   1
$$
MIZ001>003-009>011-084-161700-
WESTERN UPPER MICHIGAN

CITY           SKY/WX    TMP DP  RH WIND       PRES   REMARKS
IRON MOUNTAIN  CLOUDY    15   6  67 VRB3      29.95R
HOUGHTON       CLOUDY    16   6  65 NE8       29.97R WCI   5
COPPER HARBOR    N/A     19   8  62 CALM      30.03R
IRONWOOD       CLOUDY    15   8  73 E7        29.93R WCI   5
$$

ABBREVIATIONS USED IN REMARKS
   TC - TEMPERATURE IN CELSIUS
  WCI - WIND CHILL INDEX
   HX - HEAT INDEX
  VSB - VISIBILITY





USA.gov is the U.S. government's official web portal to all federal, state and local government web resources and services.